Regional Weather Roundup
Issued by NWS Midland/Odessa, TX

Skip options and go directly to product.
Home | Oldest Version | Next Version | Current Version | All | Text Only | Save Text | Print | Product List | Glossary On

Skip product version selection by date and time.   
853
ASUS44 KMAF 250101
RWRMAF
MIDLAND AREA WEATHER ROUNDUP
NATIONAL WEATHER SERVICE MIDLAND TX
800 PM CDT WED AUG 24 2016

...IN SOUTHWEST TEXAS AND SOUTHEAST NEW MEXICO...

CITY           SKY/WX    TMP DP  RH WIND       PRES   REMARKS
ALPINE         CLOUDY    74  65  75 E3        30.20S
ANDREWS        NOT AVBL
ARTESIA        CLEAR     75  64  69 SE18      30.04S
BIG SPRING     CLEAR     73  67  81 CALM      30.07R
CARLSBAD       CLEAR     74  63  68 SE9       30.04R
DRYDEN           N/A     86  64  47 SE10      30.03R
FORT STOCKTON  PTCLDY    75  63  66 SE7       30.08S
GUAD PASS      CLOUDY    77  57  50 SW13      30.18S
HOBBS          PTCLDY    73  63  68 S9        30.10S
MARFA          CLOUDY   N/A N/A N/A SE3       30.18S
MIDLAND AIRPK  PTCLDY    78  62  57 CALM      30.07S
MIDLAND INTL   PTCLDY    77  62  59 CALM      30.06F
ODESSA         PTCLDY    76  62  62 CALM      30.07F
PECOS          PTCLDY    74  66  75 SE5       30.03F
PRESIDIO       NOT AVBL
SEMINOLE       CLOUDY    74  61  64 SW8       30.09R
SNYDER           N/A     72  64  76 NW7       30.04F
WINK           PTCLDY    73  64  73 CALM      30.04S
$$
...OTHER STATIONS IN TEXAS...

CITY           SKY/WX    TMP DP  RH WIND       PRES   REMARKS
ABILENE        CLEAR     86  66  51 S14       30.01S
AMARILLO       CLEAR     77  62  59 S15       30.05R
AUSTIN         PTCLDY    87  74  64 SE6       30.01S
BROWNSVILLE    CLEAR     84  75  74 SE16      30.00R
CORPUS CHRISTI PTCLDY    85  74  69 SE16G22   30.00R
DALLAS FTW     PTCLDY    89  68  49 S13       30.01S
DEL RIO        CLEAR     89  62  40 SE10      29.95R
EL PASO        PTCLDY    88  46  23 SW10      30.01F
HOUSTON INT    PTCLDY    83  74  74 SE7       30.05S
LUBBOCK        LGT RAIN  76  60  57 SE10      30.07S
SAN ANGELO     CLEAR     88  63  43 SE9       30.01R
SAN ANTONIO    PTCLDY    86  69  56 SE13      30.02S
WACO           CLEAR     87  71  58 S8        30.03R
WICHITA FALLS  NOT AVBL
$$
...OTHER LOCATIONS IN NEW MEXICO...

CITY           SKY/WX    TMP DP  RH WIND       PRES   REMARKS
ALAMAGORDO     PTCLDY    86  43  22 SW6       30.04R
ALBUQUERQUE    PTCLDY    75  47  36 VRB7      30.16S
CANNON AFB     CLEAR     79  52  38 S12       30.06F
CLOVIS         CLEAR     77  52  41 S16       30.07F
HOLLOMAN AFB   CLEAR     87  45  23 SW8       30.02R
ROSWELL        LGT RAIN  68  61  78 S7        30.05F
RUIDOSO          N/A     64  52  63 E9        30.26R
SANTA FE       MOCLDY    67  44  43 N9        30.22S
TRUTH OR CONSE CLOUDY    78  48  34 NW5       30.11R
TUCUMCARI      MOCLDY    80  48  32 W8        30.03R
$$

USA.gov is the U.S. government's official web portal to all federal, state and local government web resources and services.